• In Netherlands
  • List of Countries
  • For 7 days
  • Water Temperature
  • Satellite Maps
  • Weather Map
  • Weather Widgets
  • user-avatar
    Login

    Hourly Weather Yulara

    Today, 21 January, Saturday

    Time Temperature Precipitation Wind Pressure Humidity
    00:00 +31°C° 0.5 mm 3 mps 713 mmHg 63%
    01:00 +31°C° 2.4 mm 3 mps 713 mmHg 64%
    02:00 +30°C° 2.4 mm 3 mps 713 mmHg 66%
    03:00 +30°C° 2.4 mm 3 mps 713 mmHg 68%
    04:00 +30°C° 1.4 mm 3 mps 713 mmHg 69%
    05:00 +30°C° 1.4 mm 2 mps 713 mmHg 69%
    06:00 +29°C° 1.4 mm 2 mps 713 mmHg 70%
    07:00 +30°C° 0.1 mm 2 mps 714 mmHg 66%
    08:00 +31°C° 0.1 mm 2 mps 714 mmHg 61%
    09:00 +33°C° 0.1 mm 3 mps 714 mmHg 56%
    10:00 +34°C° 0 mm 3 mps 714 mmHg 53%
    11:00 +35°C° 0 mm 3 mps 714 mmHg 49%
    12:00 +36°C° 0 mm 3 mps 713 mmHg 46%
    13:00 +36°C° 0 mm 3 mps 713 mmHg 44%
    14:00 +36°C° 0 mm 3 mps 713 mmHg 43%
    15:00 +37°C° 0 mm 3 mps 712 mmHg 41%
    16:00 +37°C° 0 mm 3 mps 712 mmHg 41%
    17:00 +37°C° 0 mm 3 mps 712 mmHg 41%
    18:00 +37°C° 0 mm 3 mps 712 mmHg 41%
    19:00 +36°C° 0 mm 2 mps 713 mmHg 43%
    20:00 +36°C° 0 mm 2 mps 713 mmHg 46%
    21:00 +35°C° 0 mm 2 mps 713 mmHg 48%
    22:00 +35°C° 0.1 mm 2 mps 714 mmHg 49%
    23:00 +34°C° 0.1 mm 2 mps 714 mmHg 50%

    Tomorrow, 22 January, Sunday

    Time Temperature Precipitation Wind Pressure Humidity
    00:00 +34°C° 0.1 mm 2 mps 714 mmHg 52%
    01:00 +33°C° 0.5 mm 3 mps 714 mmHg 55%
    02:00 +31°C° 0.5 mm 3 mps 713 mmHg 59%
    03:00 +32°C° 0.5 mm 4 mps 713 mmHg 62%
    04:00 +31°C° 0.1 mm 3 mps 713 mmHg 63%
    05:00 +30°C° 0.1 mm 2 mps 714 mmHg 64%
    06:00 +30°C° 0.1 mm 1 mps 714 mmHg 65%
    07:00 +31°C° 0 mm 1 mps 714 mmHg 61%
    08:00 +32°C° 0 mm 2 mps 714 mmHg 57%
    09:00 +34°C° 0 mm 2 mps 715 mmHg 53%
    10:00 +35°C° 0 mm 2 mps 715 mmHg 49%
    11:00 +36°C° 0 mm 2 mps 714 mmHg 44%
    12:00 +37°C° 0 mm 2 mps 714 mmHg 40%
    13:00 +37°C° 0 mm 3 mps 714 mmHg 38%
    14:00 +38°C° 0 mm 3 mps 713 mmHg 36%
    15:00 +38°C° 0 mm 4 mps 713 mmHg 35%
    16:00 +38°C° 0 mm 3 mps 713 mmHg 34%
    17:00 +38°C° 0 mm 3 mps 713 mmHg 34%
    18:00 +38°C° 0 mm 3 mps 713 mmHg 33%
    19:00 +38°C° 0 mm 2 mps 713 mmHg 36%
    20:00 +36°C° 0 mm 1 mps 713 mmHg 38%
    21:00 +35°C° 0 mm 1 mps 714 mmHg 41%
    22:00 +35°C° 0 mm 1 mps 714 mmHg 42%
    23:00 +34°C° 0 mm 1 mps 714 mmHg 43%

    Day after tomorrow, 23 January, Monday

    Time Temperature Precipitation Wind Pressure Humidity
    00:00 +35°C° 0 mm 2 mps 714 mmHg 43%
    01:00 +34°C° 0 mm 3 mps 713 mmHg 46%
    02:00 +33°C° 0 mm 4 mps 713 mmHg 49%
    03:00 +33°C° 0 mm 5 mps 713 mmHg 51%
    04:00 +32°C° 0 mm 5 mps 713 mmHg 53%
    05:00 +32°C° 0 mm 4 mps 713 mmHg 56%
    06:00 +32°C° 0 mm 4 mps 713 mmHg 58%
    07:00 +33°C° 0 mm 3 mps 714 mmHg 54%
    08:00 +34°C° 0 mm 3 mps 714 mmHg 50%
    09:00 +35°C° 0 mm 2 mps 714 mmHg 46%
    10:00 +36°C° 0 mm 2 mps 714 mmHg 42%
    11:00 +37°C° 0 mm 2 mps 714 mmHg 38%
    12:00 +38°C° 0 mm 2 mps 714 mmHg 34%
    13:00 +39°C° 0 mm 2 mps 714 mmHg 33%
    14:00 +39°C° 0 mm 3 mps 713 mmHg 32%
    15:00 +39°C° 0 mm 3 mps 713 mmHg 31%
    16:00 +39°C° 0 mm 2 mps 713 mmHg 30%
    17:00 +39°C° 0 mm 2 mps 713 mmHg 30%
    18:00 +39°C° 0 mm 1 mps 713 mmHg 29%
    19:00 +39°C° 0 mm 1 mps 714 mmHg 31%
    20:00 +37°C° 0 mm 1 mps 714 mmHg 33%
    21:00 +37°C° 0 mm 1 mps 714 mmHg 35%
    22:00 +37°C° 0 mm 2 mps 714 mmHg 38%
    23:00 +36°C° 0 mm 3 mps 715 mmHg 40%

    24 January, Tuesday

    Time Temperature Precipitation Wind Pressure Humidity
    00:00 +35°C° 0 mm 4 mps 715 mmHg 43%
    01:00 +34°C° 0.4 mm 4 mps 714 mmHg 48%
    02:00 +33°C° 0.4 mm 4 mps 714 mmHg 52%
    03:00 +33°C° 0.4 mm 4 mps 714 mmHg 57%
    04:00 +32°C° 2.2 mm 4 mps 715 mmHg 61%
    05:00 +30°C° 2.2 mm 4 mps 715 mmHg 65%
    06:00 +29°C° 2.2 mm 4 mps 716 mmHg 69%
    07:00 +29°C° 1.4 mm 5 mps 716 mmHg 71%
    08:00 +29°C° 1.4 mm 6 mps 717 mmHg 73%
    09:00 +28°C° 1.4 mm 6 mps 718 mmHg 75%
    10:00 +29°C° 0.1 mm 7 mps 717 mmHg 72%
    11:00 +29°C° 0.1 mm 7 mps 717 mmHg 69%
    12:00 +31°C° 0.1 mm 8 mps 717 mmHg 66%
    13:00 +30°C° 0 mm 7 mps 717 mmHg 61%
    14:00 +32°C° 0 mm 7 mps 717 mmHg 57%
    15:00 +33°C° 0 mm 6 mps 716 mmHg 52%
    16:00 +33°C° 0 mm 6 mps 716 mmHg 53%
    17:00 +32°C° 0 mm 7 mps 716 mmHg 53%
    18:00 +32°C° 0 mm 7 mps 716 mmHg 54%
    19:00 +32°C° 0 mm 7 mps 717 mmHg 56%
    20:00 +30°C° 0 mm 7 mps 717 mmHg 57%
    21:00 +30°C° 0 mm 7 mps 718 mmHg 59%
    22:00 +29°C° 0 mm 7 mps 718 mmHg 60%
    23:00 +29°C° 0 mm 6 mps 718 mmHg 62%

    25 January, Wednesday

    Time Temperature Precipitation Wind Pressure Humidity
    00:00 +28°C° 0 mm 5 mps 717 mmHg 63%
    01:00 +28°C° 0 mm 4 mps 717 mmHg 62%
    02:00 +28°C° 0 mm 4 mps 717 mmHg 61%
    03:00 +28°C° 0 mm 4 mps 717 mmHg 59%
    04:00 +28°C° 0.2 mm 5 mps 717 mmHg 59%
    05:00 +27°C° 0.2 mm 5 mps 718 mmHg 59%
    06:00 +27°C° 0.2 mm 6 mps 718 mmHg 59%
    07:00 +28°C° 0.2 mm 7 mps 718 mmHg 55%
    08:00 +29°C° 0.2 mm 7 mps 718 mmHg 50%
    09:00 +31°C° 0.2 mm 8 mps 719 mmHg 46%
    10:00 +32°C° 0.3 mm 8 mps 719 mmHg 44%
    11:00 +33°C° 0.3 mm 8 mps 718 mmHg 43%
    12:00 +34°C° 0.3 mm 9 mps 718 mmHg 41%
    13:00 +35°C° 0.1 mm 9 mps 718 mmHg 40%
    14:00 +37°C° 0.1 mm 9 mps 717 mmHg 38%
    15:00 +38°C° 0.1 mm 9 mps 716 mmHg 37%
    16:00 +37°C° 0 mm 9 mps 716 mmHg 37%
    17:00 +37°C° 0 mm 9 mps 716 mmHg 38%
    18:00 +37°C° 0 mm 9 mps 717 mmHg 38%
    19:00 +35°C° 0 mm 8 mps 717 mmHg 41%
    20:00 +35°C° 0 mm 7 mps 717 mmHg 43%
    21:00 +34°C° 0 mm 6 mps 718 mmHg 46%
    22:00 +33°C° 0 mm 6 mps 718 mmHg 47%
    23:00 +33°C° 0 mm 5 mps 718 mmHg 49%

    26 January, Thursday

    Time Temperature Precipitation Wind Pressure Humidity
    00:00 +33°C° 0 mm 5 mps 718 mmHg 50%
    01:00 +32°C° 0 mm 6 mps 718 mmHg 51%
    02:00 +32°C° 0 mm 6 mps 717 mmHg 52%
    03:00 +30°C° 0 mm 7 mps 717 mmHg 53%
    04:00 +29°C° 0 mm 7 mps 717 mmHg 54%
    05:00 +29°C° 0 mm 8 mps 717 mmHg 55%
    06:00 +28°C° 0 mm 8 mps 717 mmHg 56%
    07:00 +31°C° 0 mm 8 mps 718 mmHg 50%
    08:00 +32°C° 0 mm 8 mps 718 mmHg 45%
    09:00 +33°C° 0 mm 9 mps 718 mmHg 39%
    10:00 +34°C° 0 mm 9 mps 718 mmHg 36%
    11:00 +37°C° 0 mm 8 mps 718 mmHg 32%
    12:00 +39°C° 0 mm 8 mps 717 mmHg 29%
    13:00 +39°C° 0 mm 8 mps 717 mmHg 28%
    14:00 +40°C° 0 mm 8 mps 716 mmHg 27%
    15:00 +41°C° 0 mm 7 mps 716 mmHg 26%
    16:00 +40°C° 0 mm 7 mps 716 mmHg 27%
    17:00 +40°C° 0 mm 7 mps 716 mmHg 27%
    18:00 +39°C° 0 mm 7 mps 716 mmHg 28%
    19:00 +39°C° 0 mm 6 mps 716 mmHg 31%
    20:00 +38°C° 0 mm 6 mps 716 mmHg 33%
    21:00 +36°C° 0 mm 5 mps 717 mmHg 35%
    22:00 +35°C° 0 mm 5 mps 717 mmHg 36%
    23:00 +35°C° 0 mm 5 mps 716 mmHg 37%
    Show more